Location: Lucerne Valley
(34.4439°N, 116.9669°E)
Time: 00:29:20
(UTC-08:00)

Envisat - Pass Details

Date: 15 October 2017
Orbit: 764 x 766 km, 98.2° (Epoch: 14 December)

Event Time Altitude Azimuth Distance (km) Brightness Sun altitude
Exits shadow 05:01:36 24° 355° (N) 1,540 4.6 -30.3°
Drops below altitude 10° 05:03:36 10° 352° (N) 2,308 5.7 -30.7°
Sets 05:05:55 0° 350° (N) 3,238 6.5 -31.2°
